User: anonymous   Login
Location: Caltech
(34.1382°N, 118.1253°W)
Time: 03:42:38
(UTC-08:00)
Language:

Cosmos 2084 - Orbit

View from above orbital plane
View from above orbital plane
View from above satellite
View from above satellite

Ground track
Ground track

The orbit data is extracted from the following two-line orbital elements,

1 20663U 90055A   15031.04947001  .00001147  00000-0  13339-3 0  3439
2 20663 062.7944 242.6033 0059502 349.9225 010.0670 14.89975581330362
Epoch (UTC): 31 January 2015 01:11:14
Eccentricity: 0.0059502
inclination: 62.7944°
perigee height: 556 km
apogee height: 639 km
right ascension of ascending node: 242.6033°
argument of perigee: 349.9225°
revolutions per day: 14.89975581
mean anomaly at epoch: 10.0670°
orbit number at epoch: 33036

The dashed part of the orbit path shows where the satellite is in the earth's shadow,  

DLR